Preview of NWS' New Version of Forecast
This preview is not operational and should not be used for support decisions.
Latest weather observations around

Chesapeake, Chesapeake Municipal Airport (KCPK)

Using English Units (Switch to International System of Units)
Date/ Time (EDT) Wind (mph) Vis. (mi) Weather Sky Cond. Temp (°F) Rel. Humidity Wind Chill (°F) Heat Index (°F) Pressure Precip. (in)
Air Dwpt 6 hour Altimeter (inHg) Sea level (inHg) 1 hr 3 hr 6 hr
Max Min
Sep 23 05:35 S 6 10 Clear CLR 63 62     96%     30.06        
Sep 23 05:15 S 5 10 Clear CLR 62 61     96%     30.07        
Sep 23 04:55 S 3 10 Clear CLR 63 61     96%     30.07        
Sep 23 04:35 SSW 5 10 Clear CLR 63 61     96%     30.07        
Sep 23 04:15 SSW 5 10 Clear CLR 63 62     96%     30.07        
Sep 23 03:55 SSW 6 10 Clear CLR 63 62     96%     30.07        
Sep 23 03:35 SSW 5 10 Clear CLR 63 62     96%     30.07        
Sep 23 03:15 SSW 5 10 Clear CLR 63 62     96%     30.07        
Sep 23 02:55 SSW 5 10 Clear CLR 63 62     96%     30.08        
Sep 23 02:35 S 5 10 Clear CLR 64 62     95%     30.09        
Sep 23 02:15 S 5 10 Clear CLR 64 62     93%     30.1        
Sep 23 01:55 SSW 5 10 Clear CLR 64 63     94%     30.1        
Sep 23 01:35 S 5 10 Clear CLR 65 63     92%     30.09        
Sep 23 01:15 SSW 5 10 Clear CLR 65 63     92%     30.1        
Sep 23 00:55 S 5 10 Clear CLR 65 63     93%     30.1        
Sep 23 00:35 S 5 10 Clear CLR 65 63     92%     30.11        
Sep 23 00:15 S 5 10 Clear CLR 65 63     92%     30.11        
Sep 22 23:55 S 5 10 Clear CLR 65 63     91%     30.12        
Sep 22 23:35 S 3 10 Clear CLR 67 63     88%     30.12        
Sep 22 23:15 S 5 10 Clear CLR 67 63     86%     30.12        
Sep 22 22:55 S 7 10 Clear CLR 69 63     82%     30.12        
Sep 22 22:35 S 6 10 Clear CLR 69 63     82%     30.12        
Sep 22 22:15 S 7 10 Clear CLR 69 63     81%     30.12        
Sep 22 21:55 S 8 10 Clear CLR 70 63     79%   71 30.12        
Sep 22 21:35 S 9 10 Clear   71 64     79%   71 30.13        
Sep 22 21:15 SSE 7 10 Clear   71 64     80%   71 30.12        
Sep 22 20:55 SSE 6 10 Clear   71 64     78%   72 30.12        
Sep 22 20:35 SSE 6 10 Clear CLR 71 64     79%   72 30.12        
Sep 22 20:15 SSE 5 10 Clear CLR 72 64     76%   73 30.12        
Sep 22 19:55 SSE 6 7 Clear CLR 73 64     75%   73 30.12        
Sep 22 19:35 SSE 6 10 Clear CLR 74 64     73%   74 30.11        
Sep 22 19:15 SSE 6 10 Clear CLR 75 66     74%   76 30.11        
Sep 22 18:55 S 5 10 Clear CLR 77 65     67%   77 30.11        
Sep 22 18:35 Calm 10 Clear CLR 78 65     65%   79 30.11        
Sep 22 18:15 Calm 10 Light Rain CLR 80 65     60%   82 30.11        
Sep 22 17:55 S 7 10 Rain CLR 81 63     55%   82 30.11        
Sep 22 17:35 S 8 10 Light Rain CLR 82 62     52%   83 30.11        
Sep 22 17:15 S 9 7 Clear CLR 83 62     49%   83 30.11        
Sep 22 16:55 SSE 7 10 Rain CLR 83 61     48%   84 30.11        
Sep 22 16:35 S 6 10 Rain CLR 83 62     49%   84 30.11        
Sep 22 16:15 S 9 10 Rain CLR 84 62     48%   84 30.11        
Sep 22 15:55 S 13 10 Light Rain CLR 84 63     48%   85 30.12        
Sep 22 15:35 SSW 9 10 Light Rain CLR 84 62     48%   85 30.12        
Sep 22 15:15 S 9 10 Clear CLR 84 62     47%   85 30.13        
Sep 22 14:55 SSW 7 7 Clear CLR 84 62     47%   85 30.14        
Sep 22 14:35 SW 6 7 Clear CLR 84 62     46%   85 30.14        
Sep 22 14:15 SSW 7 10 Clear CLR 84 62     47%   84 30.15        
Sep 22 13:55 SSW 7 7 Clear CLR 84 62     47%   85 30.16        
Sep 22 13:35 SW 6 7 Clear CLR 84 62     48%   84 30.17        
Sep 22 13:15 SSW 7 10 Clear CLR 83 62     49%   84 30.18        
Sep 22 12:55 SW 9 10 Clear CLR 83 62     50%   84 30.18        
Sep 22 12:35 S 9 10 Clear CLR 83 63     51%   84 30.19        
Sep 22 12:15 SW 7 7 Clear CLR 82 64     54%   84 30.19        
Sep 22 11:55 SW 8 10 Clear CLR 81 63     53%   83 30.2        
Sep 22 11:35 SSW 8 7 Clear CLR 81 62     54%   82 30.21        
Sep 22 11:15 SSW 8 7 Clear CLR 79 62     57%   79 30.22        
Sep 22 10:55 S 6 10 Clear CLR 78 63     61%   78 30.22        
Sep 22 10:35 SSW 5 10 Clear CLR 76 63     65%   76 30.22        
Sep 22 10:15 SSW 5 10 Clear CLR 74 64     70%   75 30.22        
Sep 22 09:55 S 7 10 Clear CLR 72 64     74%   73 30.22        
Sep 22 09:35 SW 6 10 Clear CLR 71 63     77%   71 30.22        
Sep 22 09:15 W 5 10 Clear CLR 69 63     82%     30.22        
Sep 22 08:55 SW 6 10 Clear CLR 67 63     87%     30.22        
Sep 22 08:35 S 5 10 Clear CLR 66 63     90%     30.21        
Sep 22 08:15 SSW 3 10 Clear CLR 63 62     94%     30.21        
Sep 22 07:55 Calm 10 Clear CLR 62 61     97%     30.2        
Sep 22 07:35 SSW 3 10 Clear CLR 60 59     96%     30.21        
Sep 22 07:15 S 3 10 Clear CLR 59 58     96%     30.2        
Sep 22 06:55 SSW 3 10 Clear CLR 60 58     96%     30.2        
Sep 22 06:35 S 3 7 Clear CLR 59 58     96%     30.2        
Sep 22 06:15 S 3 10 Clear CLR 60 59     96%     30.2        
Sep 22 05:55 S 3 10 Clear CLR 60 59     96%     30.2        
Sep 22 05:35 S 3 10 Clear CLR 60 59     96%     30.2        
Sep 22 05:15 S 5 10 Clear CLR 60 59     96%     30.2        
Sep 22 04:55 S 3 10 Clear CLR 61 60     96%     30.2        
Sep 22 04:35 S 3 10 Clear CLR 61 60     96%     30.2        
Sep 22 04:15 S 5 10 Clear CLR 61 60     96%     30.2        
Sep 22 03:55 S 5 10 Clear CLR 62 60     96%     30.21        
Sep 22 03:35 SSW 5 10 Clear CLR 62 61     96%     30.21        
Sep 22 03:15 S 3 10 Clear CLR 62 61     96%     30.21        
Sep 22 02:55 S 3 10 Clear CLR 62 61     96%     30.22        
Sep 22 02:35 SSW 3 10 Clear CLR 63 62     96%     30.23        
Sep 22 02:15 SSW 3 10 Clear CLR 63 62     96%     30.23        
Sep 22 01:55 S 3 10 Clear CLR 63 62     95%     30.23        
Sep 22 01:35 S 3 10 Clear CLR 63 62     96%     30.23        
Sep 22 01:15 S 3 10 Clear CLR 64 62     95%     30.23        
Sep 22 00:55 Calm 10 Clear CLR 64 63     94%     30.23        
Sep 22 00:35 S 3 10 Clear CLR 65 63     94%     30.22        
Sep 22 00:15 SSW 3 10 Clear CLR 65 63     93%     30.23        
Sep 21 23:55 SSW 3 10 Clear CLR 65 63     93%     30.23        
Sep 21 23:35 S 3 10 Clear CLR 65 63     93%     30.23        
Sep 21 23:15 S 3 10 Clear CLR 65 63     93%     30.23        
Sep 21 22:55 Calm 10 Clear CLR 65 63     92%     30.23        
Sep 21 22:35 S 3 10 Clear CLR 65 63     93%     30.23        
Sep 21 22:15 Calm 10 Clear CLR 65 63     93%     30.23        
Sep 21 21:55 Calm 10 Clear CLR 65 62     89%     30.22        
Sep 21 21:35 Calm 10 Clear CLR 66 63     90%     30.22        
Sep 21 21:15 Calm 10 Clear CLR 65 64     95%     30.21        
Sep 21 20:55 Calm 10 Clear CLR 67 65     94%     30.21        
Sep 21 20:35 Calm 10 Clear CLR 67 65     95%     30.2        
Sep 21 20:15 Calm 7 Clear CLR 68 66     92%     30.2        
Sep 21 19:55 Calm 7 Clear CLR 69 66     91%     30.2        
Sep 21 19:35 Calm 7 Clear CLR 71 65     83%   71 30.2        
Sep 21 19:15 Calm 7 Clear CLR 72 65     81%   72 30.2        
Sep 21 18:55 Calm 7 Clear CLR 75 64     70%   75 30.19        
Sep 21 18:35 Calm 7 Clear CLR 77 63     63%   77 30.2        
Sep 21 18:15 SSW 3 7 Clear CLR 78 63     58%   79 30.2        
Sep 21 17:55 SSW 5 7 Light Rain CLR 80 62     54%   81 30.2        
Sep 21 17:35 Calm 7 Clear CLR 81 62     53%   82 30.2        
Sep 21 17:15 Calm 7 Clear CLR 81 60     49%   82 30.2        
Sep 21 16:55 SW 5 10 Clear CLR 82 59     47%   82 30.2        
Sep 21 16:35 SSW 3 10 Clear CLR 82 59     46%   82 30.2        
Sep 21 16:15 SW 5 7 Clear CLR 82 58     44%   82 30.2        
Sep 21 15:55 SW 6 10 Clear CLR 82 59     45%   82 30.21        
Sep 21 15:35 SW 7 7 Clear CLR 82 58     44%   82 30.22        
Sep 21 15:15 SW 5 10 Clear CLR 81 57     44%   81 30.22        
Sep 21 14:55 SW 6 7 Clear CLR 81 57     44%   81 30.23        
Sep 21 14:35 WSW 5 10 Clear CLR 81 57     43%   81 30.23        
Sep 21 14:15 WSW 3 7 Clear CLR 81 56     42%   81 30.24        
Sep 21 13:55 SSW 7 10 Clear CLR 81 56     44%   81 30.24        
Sep 21 13:35 S 5 7 Clear CLR 80 57     46%   81 30.25        
Sep 21 13:15 WSW 6 7 Clear CLR 80 56     44%   80 30.25        
Sep 21 12:55 SW 6 7 Clear CLR 80 56     44%   80 30.26        
Sep 21 12:35 SSW 6 10 Clear CLR 79 55     44%   78 30.26        
Sep 21 12:15 WSW 5 10 Clear CLR 78 58     49%   78 30.28        
Sep 21 11:55 SW 7 7 Clear CLR 77 59     53%   77 30.28        
Sep 21 11:35 SW 6 10 Clear CLR 76 59     56%   76 30.28        
Sep 21 11:15 SW 5 10 Clear CLR 75 61     61%   75 30.29        
Sep 21 10:55 SSW 6 10 Clear CLR 74 62     67%   74 30.29        
Sep 21 10:35 SW 3 10 Clear CLR 72 62     72%   72 30.3        
Sep 21 10:15 SW 3 10 Clear CLR 70 62     77%     30.3        
Sep 21 09:55 SW 3 10 Clear CLR 68 64     87%     30.31        
Sep 21 09:35 SW 3 10 Clear CLR 65 62     92%     30.31        
Sep 21 09:15 SW 5 10 Clear CLR 63 61     94%     30.31        
Sep 21 08:55 Calm 10 Clear CLR 61 60     96%     30.31        
Sep 21 08:35 Calm 10 Clear CLR 58 57     96%     30.31        
Sep 21 08:15 Calm 10 Clear CLR 55 54     96%     30.31        
Sep 21 07:55 Calm 10 Clear CLR 52 51     96%     30.3        
Sep 21 07:35 Calm 10 Clear CLR 51 50     96%     30.3        
Sep 21 07:15 Calm 10 Clear CLR 49 48     97%     30.29        
Sep 21 06:55 Calm 10 Partly Cloudy SCT003 49 48     97%     30.28        
Sep 21 06:35 Calm 5 Fog/Mist BKN003 48 47     97%     30.28        
Sep 21 06:15 Calm 3 Fog/Mist BKN003 48 47     96%     30.28        
Sep 21 05:55 Calm 5 Fog/Mist BKN003 48 47     97%     30.28        
Sep 21 05:35 Calm 1 Fog/Mist OVC003 50 49     97%     30.28        
Sep 21 05:15 Calm 0.5 Fog OVC001 50 49     97%     30.28        
Sep 21 04:55 Calm 5 Fog/Mist OVC001 51 50     97%     30.28        
Sep 21 04:35 Calm 0.5 Fog OVC003 50 49     97%     30.28        
Sep 21 04:15 Calm 1.75 Fog/Mist OVC003 49 48     97%     30.27        
Sep 21 03:55 Calm 0.5 Fog OVC003 49 48     97%     30.28        
Sep 21 03:35 Calm 10 Clear CLR 50 49     97%     30.28        
Sep 21 03:15 Calm 10 Clear CLR 50 49     96%     30.27        
Sep 21 02:55 Calm 10 Clear CLR 51 50     96%     30.27        
Sep 21 02:35 Calm 10 Clear CLR 53 51     96%     30.28        
Sep 21 02:15 Calm 5 Fog/Mist SCT006 53 51     95%     30.28        
Sep 21 01:55 Calm 4 Fog/Mist SCT006 52 51     96%     30.28        
Sep 21 01:35 Calm 2.5 Fog/Mist CLR 53 52     96%     30.29        
Sep 21 01:15 Calm 10 Clear CLR 53 52     97%     30.28        
Sep 21 00:55 Calm 10 Clear CLR 54 53     97%     30.28        
Sep 21 00:35 Calm 10 Clear CLR 55 54     96%     30.28        
Sep 21 00:15 Calm 10 Clear CLR 55 54     97%     30.28        
Sep 20 23:55 Calm 10 Clear CLR 56 55     96%     30.28        
Sep 20 23:35 Calm 10 Clear CLR 57 56     96%     30.28        
Sep 20 23:15 Calm 10 Clear CLR 56 55     96%     30.28        
Sep 20 22:55 Calm 10 Clear CLR 58 57     96%     30.28        
Sep 20 22:35 Calm 10 Clear CLR 57 56     96%     30.29        
Sep 20 22:15 Calm 10 Clear CLR 58 57     96%     30.29        
Sep 20 21:55 Calm 10 Clear CLR 59 57     94%     30.29        
Sep 20 21:35 Calm 10 Clear CLR 60 57     92%     30.29        
Sep 20 21:15 SSE 5 10 Clear CLR 60 58     91%     30.28        
Sep 20 20:55 SSE 3 10 Clear CLR 59 58     97%     30.28        
Sep 20 20:35 Calm 10 Clear   60 58     95%     30.28        
Sep 20 20:15 Calm 10 Clear   61 58     93%     30.27        
Sep 20 19:55 Calm 7 Clear   64 58     82%     30.27        
Sep 20 19:35 Calm 5 Haze CLR 65 59     82%     30.26        
Sep 20 19:15 Calm 5 Haze CLR 66 59     79%     30.25        
Sep 20 18:55 ESE 3 4 Haze CLR 67 59     76%     30.25        
Sep 20 18:35 ESE 6 7 Clear   69 59     71%     30.25        
Sep 20 18:15 ESE 6 7 Clear   70 58     66%   70 30.24        
Sep 20 17:55 ESE 7 7 Clear   71 58     64%   71 30.25        
Sep 20 17:35 ESE 7 7 Rain CLR 74 58     59%   73 30.24        
Sep 20 17:15 Calm 7 Clear CLR 73 54     52%   73 30.25        
Sep 20 16:55 SE 6 5 Haze CLR 75 53     46%   75 30.25        
Sep 20 16:35 E 3 7 Clear CLR 75 51     43%   74 30.25        
Sep 20 16:15 Calm 7 Clear CLR 75 52     45%   74 30.25        
Sep 20 15:55 Calm 5 Haze CLR 74 52     46%   74 30.25        
Sep 20 15:35 ESE 5 7 Clear CLR 75 53     46%   75 30.25        
Sep 20 15:15 SE 3 10 Clear CLR 75 52     45%   74 30.26        
Sep 20 14:55 Calm 10 Clear CLR 75 53     47%   74 30.26        
Sep 20 14:35 Calm 10 Clear CLR 74 53     48%   73 30.27        
Sep 20 14:15 Calm 10 Clear CLR 73 52     47%   73 30.27        
Sep 20 13:55 W 3 10 Clear CLR 73 52     49%   72 30.28        
Sep 20 13:35 Calm 10 Clear CLR 72 53     50%   72 30.29        
Sep 20 13:15 Calm 10 Clear CLR 72 53     51%   71 30.3        
Sep 20 12:55 Calm 10 Clear CLR 72 53     51%   71 30.31        
Sep 20 12:35 WNW 6 10 Clear CLR 71 52     51%   70 30.32        
Sep 20 12:15 NW 5 10 Clear CLR 71 52     50%   70 30.32        
Sep 20 11:55 Calm 10 Clear CLR 70 52     52%   70 30.33        
Sep 20 11:35 Calm 10 Clear CLR 69 52     55%     30.33        
Sep 20 11:15 S 3 10 Clear CLR 69 53     57%     30.33        
Sep 20 10:55 Calm 10 Clear CLR 68 53     57%     30.33        
Sep 20 10:35 NE 3 10 Clear CLR 68 53     59%     30.34        
Sep 20 10:15 NNE 3 10 Clear CLR 68 54     62%     30.34        
Sep 20 09:55 Calm 10 Clear CLR 66 55     67%     30.34        
Sep 20 09:35 Calm 10 Clear CLR 64 56     76%     30.34        
Sep 20 09:15 Calm 10 Clear CLR 62 57     82%     30.34        
Sep 20 08:55 Calm 10 Clear CLR 58 56     94%     30.34        
Sep 20 08:35 Calm 10 Clear CLR 54 53     96%     30.33        
Sep 20 08:15 Calm 10 Clear CLR 50 49     96%     30.33        
Sep 20 07:55 Calm 10 Clear CLR 48 47     96%     30.33        
Sep 20 07:35 Calm 10 Clear CLR 46 45     97%     30.33        
Sep 20 07:15 Calm 10 Clear CLR 47 46     96%     30.32        
Sep 20 06:55 Calm 10 Clear CLR 46 45     97%     30.32        
Sep 20 06:35 Calm 10 Clear CLR 45 44     96%     30.32        
Sep 20 06:15 Calm 10 Clear CLR 46 45     96%     30.31        
Sep 20 05:55 Calm 10 Clear CLR 46 45     96%     30.3        
Sep 20 05:35 Calm 10 Clear CLR 47 46     97%     30.3        
Sep 20 05:15 Calm 10 Clear CLR 46 45     97%     30.29        
Sep 20 04:55 Calm 10 Clear CLR 46 45     97%     30.29        
Sep 20 04:35 Calm 10 Clear CLR 45 45     97%     30.28        
Sep 20 03:55 Calm 10 Clear CLR 48 47     96%     30.28        
Sep 20 03:35 Calm 10 Clear CLR 47 46     96%     30.27        
Sep 20 03:15 Calm 10 Clear CLR 47 47     97%     30.28        
Sep 20 02:55 Calm 5 Fog/Mist CLR 47 46     96%     30.28        
May 15 12:35 SW 9 10 Partly Cloudy SCT039 83 67     58%   85 30.03        
May 15 05:15 SSW 5 10 Clear   66 63     90%     30.02        
May 14 12:55 WSW 5 7 Clear CLR 85 68     57%   89 30.01        
May 14 12:15 Calm 7 Clear CLR 83 67     58%   86 30.01        
May 14 04:15 SSW 7 10 Clear CLR 68 62     80%     29.96        
May 14 00:35 SSW 3 5 Fog/Mist CLR 63 62     94%     30        
May 13 15:15 N 7 7 Clear CLR 82 65     56%   84 30.02        
May 13 12:15 N 7 7 Light Rain CLR 80 65     61%   81 30.06        
May 13 11:15 NNE 3 10 Clear CLR 81 65     58%   82 30.07        
Notice The following observation data may not be complete
May 13 09:15   10 Clear CLR          %              
May 13 05:15 Calm 10 Clear CLR 64 61     89%     30.01        
May 13 02:15 S 8 10 Clear CLR 71 60     70%   71 30.02        
Notice The following observation data may not be complete
May 13 00:15   10 Clear CLR          %              
May 12 17:15 S 13 10 Clear CLR 89 63     43%   90 30        
May 12 16:15 SSW 9 10 Clear CLR 89 63     42%   90 30        
May 12 14:55 SW 7 10 Clear CLR 90 62     40%   90 30.02        
May 12 09:55 SSW 7 10 Clear CLR 79 60     52%   79 30.12        
May 12 01:55 SSE 6 10 Clear CLR 66 62     89%     30.09        
May 12 00:55 Calm 10 Clear CLR 67 62     83%     30.1        
May 12 00:35 S 6 10 Clear CLR 68 62     81%     30.1        
May 11 20:35 SE 5 10 Clear CLR 71 59     66%   71 30.05        
Notice The following observation data may not be complete
May 11 17:35 ESE 6 10 Mostly Cloudy SCT070 BKN085   59      %     30.04        
May 11 12:35 NNW 3 10 Clear CLR 81 58     45%   81 30.05        
May 11 11:35 NNE 3 10 Clear CLR 79 60     52%   79 30.05        
Jun 12 05:15 SW 3 7 Clear CLR 68 65     88%     30.12        
Notice The following observation data may not be complete
Jun 12 04:15   10 Clear CLR          %              
Jun 12 03:35 S 5 7 Clear CLR 67 64     91%     30.12        
Jun 12 02:35 S 5 7 Clear CLR 69 65     87%     30.13        
Jun 12 00:55 SSW 7 10 Clear CLR 72 66     82%   73 30.14        
Jun 11 22:55 S 7 7 Clear   74 69     83%   75 30.15        
Jun 11 22:15 S 7 10 Clear   76 69     79%   77 30.14        
Jun 11 19:35 SSW 6 10 Clear CLR 83 67     57%   86 30.11        
Jun 11 16:15 SW 8 10 Clear CLR 91 63     41%   92 30.13        
Jun 11 15:35 S 9 10 Partly Cloudy SCT060 SCT075 SCT085 89 65     44%   91 30.13        
Jun 11 13:35 SSW 9 10 Light Rain CLR 89 66     47%   91 30.17        
Jun 11 09:15 NW 3 5 Haze CLR 79 65     62%   80 30.2        
Notice The following observation data may not be complete
Jun 11 03:35   7 Clear CLR          %              
Jun 11 03:15 SSW 6 7 Clear   68 63     84%     30.13        
Jun 10 22:35 S 6 10 Clear CLR 73 67     80%   74 30.14        
Jun 10 20:55 SSE 6 10 Clear CLR 75 65     72%   76 30.09        
Jun 10 19:35 SSW 5 10 Light Rain CLR 80 63     55%   82 30.07        
Jun 10 16:15 SSW 5 7 Clear CLR 86 59     40%   86 30.06        
Jun 10 11:15 SW 5 7 Clear CLR 81 62     53%   82 30.1        
Notice The following observation data may not be complete
Jun 10 05:15   7 Clear CLR          %              
Jun 09 19:55 Calm 10 Clear CLR 76 57     53%   75 29.94        
Notice The following observation data may not be complete
Jun 08 19:15   10 Clear CLR          %              
Notice The following observation data may not be complete
Jun 08 13:35   10 Cloudy OVC020          %              
Notice The following observation data may not be complete
Jun 08 07:35   10 Cloudy OVC026          %              
Notice The following observation data may not be complete
Jun 08 03:15   10 Mostly Cloudy SCT026 BKN120          %              
Notice The following observation data may not be complete
Jun 08 02:35   10 Clear CLR          %              
Jun 07 22:55 NE 5 10 Partly Cloudy SCT021 58 51     80%     30.01        
Jun 07 18:15 NE 9 10 Cloudy OVC025 61 53     73%     29.97        
Jun 07 17:55 NE 16 10 Cloudy OVC025 62 52     72%     29.97        
Notice The following observation data may not be complete
Jun 07 11:35   10 Cloudy BKN018 OVC026          %              
Jun 07 11:15 NE 9 10 Cloudy SCT020 OVC024 64 56     75%     29.93        
Jun 07 09:55 NNE 13 10 Cloudy OVC020 64 57     77%     29.91        
Jun 06 12:15 NNE 5 7 Mostly Cloudy SCT031 BKN038 BKN048 77 63     63%   77 29.75        
Jun 06 06:15 Calm 4 Fog/Mist OVC003 65 65     98%     29.72        
Jun 06 03:15 WNW 7 7 Cloudy OVC005 67 66     97%     29.67        
Jun 05 20:35 Calm 10 Mostly Cloudy BKN005 SCT025 BKN090 71 70     96%   72 29.64        
Jun 05 16:35 SW 6 4 Rain BKN006 BKN017 OVC055 72 71     96%   74 29.7   0